Weather History for Bolton Field, OH

Change the Weather History Date:

Friday, January 18, 2013

  Actual Average Record
Temperature  
Mean Temperature 30 °F -  
Max Temperature 34 °F 32 °F 50 °F (1999)
Min Temperature 17 °F 19 °F 1 °F (1997)
Degree Days  
Heating Degree Days 34    
Moisture  
Dew Point 17 °F    
Average Humidity 72    
Maximum Humidity 86    
Minimum Humidity 55    
Precipitation  
Precipitation 0.00 in - - ()
Sea Level Pressure  
Sea Level Pressure 30.39 in    
Wind  
Wind Speed 9 mph (SW)    
Max Wind Speed 17 mph    
Max Gust Speed 25 mph    
Visibility 10 miles    
Events      
Averages and records for this station are not official NWS values.
T = Trace of Precipitation, MM = Missing Value Source: NWS Daily Summary

Daily Weather History Graph

Daily Weather History Graph

Search for Another Location

Airport:

Trip Planner

Search our weather history database for the weather conditions in past years. The results will help you decide how hot, cold, wet, or windy it might be!

Date:

Astronomy

Jan. 18, 2013 Rise Set
Actual Time 7:50 AM EST 5:35 PM EST
Civil Twilight 7:21 AM EST 6:05 PM EST
Nautical Twilight 6:48 AM EST 6:38 PM EST
Astronomical Twilight 6:15 AM EST 7:10 PM EST
Moon 11:29 AM EST (1/18) 12:24 AM EST (1/18)
Length of Visible Light 10h 43m
Length of Day
9h 44m
Waxing Crescent, 47% of the Moon is Illuminated
Jan 18
Waxing Crescent
Jan 18
First Quarter
Jan 26
Full
Feb 3
Last Quarter
Feb 10
New

Hourly Weather History & Observations

Time (EST) Temp. Windchill Dew Point Humidity Pressure Visibility Wind Dir Wind Speed Gust Speed Precip Events Conditions
12:15 AM 24.1 °F 11.5 °F 14.4 °F 66% 30.35 in 10.0 mi NW 15.0 mph 21.9 mph N/A   Clear
12:35 AM 23.5 °F 13.0 °F 15.3 °F 71% 30.36 in 10.0 mi NW 10.4 mph - N/A   Clear
12:55 AM 23.0 °F 11.1 °F 13.8 °F 68% 30.37 in 10.0 mi NW 12.7 mph - N/A   Clear
1:15 AM 22.8 °F 11.5 °F 14.4 °F 70% 30.39 in 10.0 mi NW 11.5 mph - N/A   Clear
1:35 AM 22.1 °F 13.7 °F 13.1 °F 68% 30.39 in 10.0 mi WNW 6.9 mph - N/A   Clear
1:55 AM 21.6 °F 14.0 °F 13.3 °F 70% 30.41 in 10.0 mi WNW 5.8 mph - N/A   Clear
2:15 AM 21.6 °F 14.0 °F 14.0 °F 73% 30.42 in 10.0 mi WNW 5.8 mph - N/A   Clear
2:35 AM 21.4 °F 12.8 °F 12.7 °F 69% 30.42 in 10.0 mi WNW 6.9 mph - N/A   Clear
2:55 AM 20.7 °F - 12.4 °F 70% 30.42 in 10.0 mi North - - N/A   Clear
3:15 AM 20.7 °F 15.8 °F 12.2 °F 70% 30.44 in 10.0 mi West 3.5 mph - N/A   Clear
3:35 AM 20.3 °F - 13.1 °F 74% 30.44 in 10.0 mi Calm Calm - N/A   Clear
3:55 AM 20.3 °F - 13.1 °F 74% 30.44 in 10.0 mi North - - N/A   Clear
4:15 AM 19.8 °F - 13.1 °F 75% 30.43 in 10.0 mi North - - N/A   Clear
4:35 AM 19.4 °F - 13.1 °F 76% 30.44 in 10.0 mi Calm Calm - N/A   Clear
4:55 AM 18.9 °F - 13.3 °F 79% 30.44 in 10.0 mi North - - N/A   Clear
5:15 AM 18.5 °F 13.3 °F 13.8 °F 82% 30.44 in 10.0 mi WSW 3.5 mph - N/A   Clear
5:35 AM 18.5 °F 11.7 °F 13.8 °F 82% 30.46 in 10.0 mi WSW 4.6 mph - N/A   Clear
5:55 AM 18.3 °F 13.1 °F 14.0 °F 83% 30.45 in 10.0 mi WSW 3.5 mph - N/A   Clear
6:15 AM 17.6 °F 10.7 °F 13.8 °F 85% 30.45 in 10.0 mi WSW 4.6 mph - N/A   Clear
6:35 AM 17.6 °F 12.3 °F 13.1 °F 83% 30.46 in 10.0 mi SW 3.5 mph - N/A   Clear
6:55 AM 18.0 °F - 13.1 °F 81% 30.46 in 10.0 mi Calm Calm - N/A   Clear
7:10 AM 17.6 °F - 12.2 °F 79% 30.47 in 10.0 mi Calm Calm - N/A   Clear
7:15 AM 18.1 °F - 13.5 °F 82% 30.46 in 10.0 mi Calm Calm - N/A   Clear
7:55 AM 17.6 °F 10.7 °F 12.2 °F 79% 30.48 in 10.0 mi SW 4.6 mph - N/A   Clear
8:55 AM 21.2 °F 13.6 °F 17.6 °F 86% 30.49 in 10.0 mi WSW 5.8 mph - N/A   Clear
9:55 AM 26.6 °F 21.2 °F 15.8 °F 64% 30.50 in 10.0 mi SW 4.6 mph - N/A   Clear
11:50 AM 30.2 °F 23.4 °F 17.6 °F 60% 30.48 in 10.0 mi SW 6.9 mph - N/A   Clear
12:47 PM 32.0 °F 23.6 °F 17.6 °F 55% 30.45 in 10.0 mi SSW 10.4 mph - N/A   Clear
1:47 PM 33.8 °F 24.3 °F 19.4 °F 56% 30.41 in 10.0 mi South 13.8 mph - N/A   Clear
1:52 PM 44.6 °F 40.2 °F 30.2 °F 57% 30.48 in 10.0 mi SSE 8.1 mph - N/A   Clear
2:50 PM 33.8 °F 24.3 °F 19.4 °F 56% 30.39 in 10.0 mi South 13.8 mph 19.6 mph N/A   Clear
3:50 PM 33.8 °F 23.5 °F 19.4 °F 56% 30.37 in 10.0 mi South 16.1 mph 23.0 mph N/A   Clear
4:50 PM 33.8 °F 24.8 °F 19.4 °F 56% 30.35 in 10.0 mi South 12.7 mph 23.0 mph N/A   Clear
5:50 PM 32.0 °F 22.5 °F 21.2 °F 64% 30.33 in 10.0 mi South 12.7 mph 20.7 mph N/A   Clear
6:50 PM 30.2 °F 20.8 °F 23.0 °F 75% 30.33 in 10.0 mi South 11.5 mph - N/A   Clear
8:15 PM 30.9 °F 21.7 °F 23.9 °F 75% 30.29 in 10.0 mi South 11.5 mph 16.1 mph N/A   Clear
8:35 PM 30.9 °F 21.7 °F 23.9 °F 75% 30.29 in 10.0 mi South 11.5 mph - N/A   Clear
8:55 PM 30.7 °F 22.6 °F 23.9 °F 76% 30.28 in 10.0 mi South 9.2 mph - N/A   Clear
9:15 PM 30.6 °F 22.4 °F 23.7 °F 76% 30.27 in 10.0 mi South 9.2 mph - N/A   Clear
9:35 PM 30.9 °F 22.2 °F 23.9 °F 75% 30.26 in 10.0 mi South 10.4 mph - N/A   Clear
10:35 PM 32.4 °F 21.7 °F 24.8 °F 74% 30.23 in 10.0 mi South 16.1 mph 20.7 mph N/A   Clear
10:55 PM 32.9 °F 22.8 °F 24.8 °F 72% 30.22 in 10.0 mi South 15.0 mph - N/A   Clear
11:15 PM 33.1 °F 22.2 °F 24.8 °F 72% 30.21 in 10.0 mi South 17.3 mph 25.3 mph N/A   Clear
11:35 PM 32.9 °F 22.8 °F 24.6 °F 72% 30.21 in 10.0 mi South 15.0 mph 23.0 mph N/A   Clear
11:55 PM 32.9 °F 23.7 °F 24.4 °F 71% 30.21 in 10.0 mi South 12.7 mph - N/A   Clear